HS0QKD-4 Weather Reports


time (UTC)temp
F
wind
direction
speed
knots
gust
knots
rain 1hr
in
rain 24hr
in
rain mn
in
humidity
%
barometer
mb
20260505000542 0 0 0.0 0.0 0.00 0.00 0.00 99 752.0
20260504235525 0 0 0.0 0.0 0.00 0.00 0.00 99 752.0
20260504234458 0 0 0.0 0.0 0.00 0.00 0.00 99 752.0
20260504233436 0 0 0.0 0.0 0.00 0.00 0.00 99 752.0
20260504232414 0 0 0.0 0.0 0.00 0.00 0.00 99 752.0
20260504231352 0 0 0.0 0.0 0.00 0.00 0.00 99 751.0
20260504230330 0 0 0.0 0.0 0.00 0.00 0.00 99 752.0
20260504225308 0 0 0.0 0.0 0.00 0.00 0.00 99 752.0
20260504224247 0 0 0.0 0.0 0.00 0.00 0.00 99 752.0
20260504223225 0 0 0.0 0.0 0.00 0.00 0.00 99 752.0
20260504222202 0 0 0.0 0.0 0.00 0.00 0.00 99 751.0
20260504221140 0 0 0.0 0.0 0.00 0.00 0.00 99 751.0
20260504220118 0 0 0.0 0.0 0.00 0.00 0.00 99 752.0
20260504214618 0 0 0.0 0.0 0.00 0.00 0.00 99 752.0
20260504210609 0 0 0.0 0.0 0.00 0.00 0.00 99 752.0
20260504204243 0 0 0.0 0.0 0.00 0.00 0.00 99 752.0
20260504202554 0 0 0.0 0.0 0.00 0.00 0.00 99 752.0
20260504201540 0 0 0.0 0.0 0.00 0.00 0.00 99 752.0
20260504200518 0 0 0.0 0.0 0.00 0.00 0.00 99 752.0
20260504195449 0 0 0.0 0.0 0.00 0.00 0.00 99 752.0
20260504194424 0 0 0.0 0.0 0.00 0.00 0.00 99 751.0
20260504193403 0 0 0.0 0.0 0.00 0.00 0.00 99 751.0
20260504192340 0 0 0.0 0.0 0.00 0.00 0.00 99 752.0
20260504191318 0 0 0.0 0.0 0.00 0.00 0.00 99 751.0
20260504190256 0 0 0.0 0.0 0.00 0.00 0.00 99 751.0
20260504190212 0 0 0.0 0.0 0.00 0.00 0.00 99 751.0
20260504184207 0 0 0.0 0.0 0.00 0.00 0.00 99 751.0
20260504183155 0 0 0.0 0.0 0.00 0.00 0.00 99 751.0
20260504182124 0 0 0.0 0.0 0.00 0.00 0.00 99 751.0
20260504181101 0 0 0.0 0.0 0.00 0.00 0.00 99 751.0
20260504180039 0 0 0.0 0.0 0.00 0.00 0.00 99 750.0
20260504175020 0 0 0.0 0.0 0.00 0.00 0.00 99 751.0
20260504173955 0 0 0.0 0.0 0.00 0.00 0.00 99 751.0
20260504170936 0 0 0.0 0.0 0.00 0.00 0.00 99 751.0
20260504150512 0 0 0.0 0.0 0.00 0.00 0.00 99 751.0
20260504141321 0 0 0.0 0.0 0.00 0.00 0.00 99 751.0
20260504140533 0 0 0.0 0.0 0.00 0.00 0.00 99 750.0
20260504130806 0 0 0.0 0.0 0.00 0.00 0.00 99 751.0
20260504100428 0 0 0.0 0.0 0.00 0.00 0.00 85 740.0
20260504050438 0 0 0.0 0.0 0.00 0.00 0.00 67 737.0
20260504045415 0 0 0.0 0.0 0.00 0.00 0.00 72 737.0
20260504044354 0 0 0.0 0.0 0.00 0.00 0.00 77 737.0
20260504043332 0 0 0.0 0.0 0.00 0.00 0.00 76 737.0
20260504042309 0 0 0.0 0.0 0.00 0.00 0.00 78 737.0
20260504041252 0 0 0.0 0.0 0.00 0.00 0.00 77 738.0
20260504040225 0 0 0.0 0.0 0.00 0.00 0.00 78 738.0
20260504035203 0 0 0.0 0.0 0.00 0.00 0.00 81 739.0
20260504034141 0 0 0.0 0.0 0.00 0.00 0.00 83 739.0
20260504033119 0 0 0.0 0.0 0.00 0.00 0.00 87 739.0
20260504032057 0 0 0.0 0.0 0.00 0.00 0.00 92 741.0
20260504031035 0 0 0.0 0.0 0.00 0.00 0.00 91 740.0
20260504030013 0 0 0.0 0.0 0.00 0.00 0.00 90 741.0
20260504024953 0 0 0.0 0.0 0.00 0.00 0.00 92 742.0
20260504024220 0 0 0.0 0.0 0.00 0.00 0.00 93 742.0
20260504020903 0 0 0.0 0.0 0.00 0.00 0.00 99 745.0
20260504015849 0 0 0.0 0.0 0.00 0.00 0.00 99 746.0
20260504014843 0 0 0.0 0.0 0.00 0.00 0.00 99 747.0
20260504013757 0 0 0.0 0.0 0.00 0.00 0.00 99 747.0
20260504012210 0 0 0.0 0.0 0.00 0.00 0.00 99 748.0
20260504004442 0 0 0.0 0.0 0.00 0.00 0.00 99 748.0
20260504003415 0 0 0.0 0.0 0.00 0.00 0.00 99 749.0
20260504002354 0 0 0.0 0.0 0.00 0.00 0.00 99 749.0
20260504001331 0 0 0.0 0.0 0.00 0.00 0.00 99 749.0